Weather History for Barter Island, AK

Change the Weather History Date:

Saturday, May 11, 2013

  Actual Average Record
Temperature  
Mean Temperature 25 °F -  
Max Temperature 27 °F 23 °F 80 °F (2004)
Min Temperature 16 °F 14 °F 8 °F (2011)
Degree Days  
Heating Degree Days 40    
Moisture  
Dew Point 21 °F    
Average Humidity 81    
Maximum Humidity 92    
Minimum Humidity 72    
Precipitation  
Precipitation 0.00 in - - ()
Sea Level Pressure  
Sea Level Pressure 29.94 in    
Wind  
Wind Speed 5 mph (SW)    
Max Wind Speed 9 mph    
Max Gust Speed -    
Visibility 10 miles    
Events      
Averages and records for this station are not official NWS values.
T = Trace of Precipitation, MM = Missing Value Source: NWS Daily Summary

Daily Weather History Graph

Daily Weather History Graph

Search for Another Location

Airport:

Trip Planner

Search our weather history database for the weather conditions in past years. The results will help you decide how hot, cold, wet, or windy it might be!

Date:

Astronomy

May. 11, 2013 Rise Set
Actual Time 2:48 AM AKDT 12:21 AM AKDT
Civil Twilight Sun does not rise Sun does not rise
Nautical Twilight Sun does not rise Sun does not rise
Astronomical Twilight Sun does not rise Sun does not rise
Moon 3:20 AM AKDT (5/11) 1:50 AM AKDT (5/11)
Length of Visible Light 24h 00m
Length of Day
21h 33m
Waxing Crescent, 3% of the Moon is Illuminated
May 11
Waxing Crescent
May 17
First Quarter
May 24
Full
May 31
Last Quarter
Jun 8
New

Hourly Weather History & Observations

Time (AKDT) Temp. Windchill Dew Point Humidity Pressure Visibility Wind Dir Wind Speed Gust Speed Precip Events Conditions
12:01 AM 25.0 °F 19.3 °F 19.9 °F 81% 30.05 in 10.0 mi South 4.6 mph - N/A   Unknown
1:01 AM 24.1 °F 17.0 °F 19.0 °F 81% 30.04 in 10.0 mi South 5.8 mph - N/A   Unknown
2:01 AM 18.0 °F 12.7 °F 15.1 °F 88% 30.04 in 10.0 mi NE 3.5 mph - N/A   Unknown
3:01 AM 17.1 °F 7.6 °F 15.1 °F 92% 30.03 in 10.0 mi East 6.9 mph - N/A   Unknown
4:01 AM 16.0 °F - 12.9 °F 88% 30.01 in 10.0 mi Calm Calm - N/A   Unknown
5:01 AM 17.1 °F - 14.0 °F 88% 30.00 in 10.0 mi Calm Calm - N/A   Unknown
6:01 AM 18.0 °F - 14.0 °F 84% 29.98 in 10.0 mi Calm Calm - N/A   Unknown
7:01 AM 19.0 °F 12.3 °F 12.9 °F 77% 29.97 in 10.0 mi SSE 4.6 mph - N/A   Unknown
8:01 AM 21.0 °F 16.2 °F 15.1 °F 78% 29.96 in 10.0 mi SSE 3.5 mph - N/A   Unknown
9:01 AM 26.1 °F - 19.0 °F 75% 29.96 in 10.0 mi Calm Calm - N/A   Unknown
10:01 AM 30.0 °F - 21.9 °F 72% 29.95 in 10.0 mi Calm Calm - N/A   Unknown
11:01 AM 26.1 °F 18.4 °F 19.9 °F 78% 29.94 in 10.0 mi West 6.9 mph - N/A   Unknown
12:01 PM 25.0 °F 16.3 °F 19.0 °F 78% 29.94 in 10.0 mi WSW 8.1 mph - N/A   Unknown
1:01 PM 27.0 °F 19.5 °F 21.9 °F 81% 29.93 in 10.0 mi WSW 6.9 mph - N/A   Unknown
2:01 PM 30.0 °F 22.4 °F 24.1 °F 79% 29.92 in 10.0 mi West 8.1 mph - N/A   Unknown
3:01 PM 30.9 °F 24.3 °F 24.1 °F 76% 29.91 in 10.0 mi West 6.9 mph - N/A   Unknown
4:01 PM 30.9 °F 23.5 °F 25.0 °F 79% 29.90 in 10.0 mi West 8.1 mph - N/A   Unknown
5:01 PM 33.1 °F 26.9 °F 26.1 °F 75% 29.89 in 10.0 mi West 6.9 mph - N/A   Unknown
6:01 PM 34.0 °F 26.6 °F 26.1 °F 73% 29.88 in 10.0 mi West 9.2 mph - N/A   Unknown
7:01 PM 33.1 °F 28.7 °F 26.1 °F 75% 29.87 in 10.0 mi West 4.6 mph - N/A   Unknown
8:01 PM 30.9 °F 23.5 °F 27.0 °F 85% 29.85 in 10.0 mi West 8.1 mph - N/A   Unknown
9:01 PM 28.9 °F 22.8 °F 25.0 °F 85% 29.84 in 10.0 mi SSW 5.8 mph - N/A   Unknown
10:01 PM 28.0 °F 24.2 °F 26.1 °F 92% 29.83 in 10.0 mi SW 3.5 mph - N/A   Unknown
11:01 PM 28.0 °F 22.8 °F 26.1 °F 92% 29.82 in 10.0 mi SSW 4.6 mph - N/A   Unknown